SCP
0 0 0 0 0 0 0 0 0 0 0 0 0 0 0 0 0 0 0 0 0 0 0 0 0 0 0 0 0 0 0 0 0 0 0 0 0 0 0 0 0 0 0
0 0 0 0 0 0 0 0 0 0 0 0 0 0 0 0 0 0 0 0 0 0 0 0 0 0 0 0 0 0 0 0 0 0 0 0 0 0 0 0 0 0 0
0 0 0 0 0 0 0 0 0 0 0 0 0 0 0 0 0 0 0 0 0 0 0 0 0 0 0 0 0 0 0 0 0 0 0 0 0 0 0 0 0 0 0
0 0 0 0 0 0 0 0 0 0 0 0 0 0 0 0 0 0 0 0 0 0 0 0 0 0 0 0 0 0 0 0 0 0 0 0 0 0 0 0 0 0 0
0 0 0 0 0 0 0 0 0 0 0 0 0 0 0 0 0 0 0 0 0 0 0 0 0 0 0 0 0 0 0 0 0 0 0 0 0 0 0 0 0 0 0
0 0 0 0 0 0 0 0 0 0 0 0 0 0 0 0 0 0 0 0 0 0 0 0 0 0 0 0 0 0 0 0 0 0 0 0 0 0 0 0 0 0 0
0 0 0 0 0 0 0 0 0 0 0 0 0 0 0 0 0 0 0 0 0 0 0 0 0 0 0 0 0 0 0 0 0 0 0 0 0 0 0 0 0 0 0
0 0 0 0 0 0 0 0 0 0 0 0 0 0 0 0 0 0 0 0 0 0 0 0 0 0 0 0 0 0 0 0 0 0 0 0 0 0 0 0 0 0 0
0 0 0 0 0 0 0 0 0 0 0 0 0 0 0 0 0 0 0 0 0 0 0 0 0 0 0 0 0 0 0 0 0 0 0 0 0 0 0 0 0 0 0
0 0 0 0 0 0 0 0 0 0 0 0 0 0 0 0 0 0 0 0 0 0 0 0 0 0 0 0 0 0 0 0 0 0 0 0 0 0 0 0 0 0 0
0 0 0 0 0 0 0 0 0 0 0 0 0 0 0 0 0 0 0 0 0 0 0 0 0 0 0 0 0 0 0 0 0 0 0 0 0 0 0 0 0 0 0
0 0 0 0 0 0 0 0 0 0 0 0 0 0 0 0 0 0 0 0 0 0 0 0 0 0 0 0 0 0 0 0 0 0 0 0 0 0 0 0 0 0 0
0 0 0 0 0 0 0 0 0 0 0 0 0 0 0 0 0 0 0 0 0 0 0 0 0 0 0 0 0 0 0 0 0 0 0 0 0 0 0 0 0 0 0
0 0 0 0 0 0 0 0 0 0 0 0 0 0 0 0 0 0 0 0 0 0 0 0 0 0 0 0 0 0 0 0 0 0 0 0 0 0 0 0 0 0 0
0 0 0 0 0 0 0 0 0 0 0 0 0 0 0 0 0 0 0 0 0 0 0 0 0 0 0 0 0 0 0 0 0 0 0 0 0 0 0 0 0 0 0
0 0 0 0 0 0 0 0 0 0 0 0 0 0 0 0 0 0 0 0 0 0 0 0 0 0 0 0 0 0 0 0 0 0 0 0 0 0 0 0 0 0 0
0 0 0 0 0 0 0 0 0 0 0 0 0 0 0 0 0 0 0 0 0 0 0 0 0 0 0 0 0 0 0 0 0 0 0 0 0 0 0 0 0 0 0
0 0 0 0 0 0 0 0 0 0 0 0 0 0 0 0 0 0 0 0 0 0 0 0 0 0 0 0 0 0 0 0 0 0 0 0 0 0 0 0 0 0 0
0 0 0 0 0 0 0 0 0 0 0 0 0 0 0 0 0 0 0 0 0 0 0 0 0 0 0 0 0 0 0 0 0 0 0 0 0 0 0 0 0 0 0
0 0 0 0 0 0 0 0 0 0 0 0 0 0 0 0 0 0 0 0 0 0 0 0 0 0 0 0 0 0 0 0 0 0 0 0 0 0 0 0 0 0 0
0 0 0 0 0 0 0 0 0 0 0 0 0 0 0 0 0 0 0 0 0 0 0 0 0 0 0 0 0 0 0 0 0 0 0 0 0 0 0 0 0 0 0
0 0 0 0 0 0 0 0 0 0 0 0 0 0 0 0 0 0 0 0 0 0 0 0 0 0 0 0 0 0 0 0 0 0 0 0 0 0 0 0 0 0 0
0 0 0 0 0 0 0 0 0 0 0 0 0 0 0 0 0 0 0 0 0 0 0 0 0 0 0 0 0 0 0 0 0 0 0 0 0 0 0 0 0 0 0
0 0 0 0 0 0 0 0 0 0 0 0 0 0 0 0 0 0 0 0 0 0 0 0 0 0 0 0 0 0 0 0 0 0 0 0 0 0 0 0 0 0 0
0 0 0 0 0 0 0 0 0 0 0 0 0 0 0 0 0 0 0 0 0 0 0 0 0 0 0 0 0 0 0 0 0 0 0 0 0 0 0 0 0 0 0
0 0 0 0 0 0 0 0 0 0 0 0 0 0 0 0 0 0 0 0 0 0 0 0 0 0 0 0 0 0 0 0 0 0 0 0 0 0 0 0 0 0 0
Wind_Speed
13 12 12 11 10 9 9 8 7 7 6 7 7 7 8 8 7 7 7 6 6 5 4 4 3 2 2 2 1 1 1 1 2 4 3 4 5 7 8 7 7 6 7
11 11 11 10 10 10 9 8 7 7 7 7 8 8 9 9 8 8 7 7 6 5 4 4 3 2 2 2 1 2 2 1 2 4 4 4 5 7 7 8 8 8 6
11 11 11 10 9 9 8 7 7 8 8 8 9 9 8 8 7 7 6 5 5 4 4 3 3 3 3 2 2 2 2 3 2 3 5 4 4 6 6 8 8 7 9
10 10 10 9 8 8 8 8 8 8 8 8 8 8 7 7 6 6 5 5 5 5 4 4 4 3 3 3 3 3 3 3 4 4 5 6 5 6 5 5 7 6 7
10 10 9 8 7 7 7 7 7 7 8 7 7 6 5 5 4 4 4 5 5 5 6 5 5 6 5 2 2 3 3 3 4 5 6 6 7 6 6 5 8 8 8
8 8 7 7 7 6 6 6 6 6 5 6 5 5 4 3 3 5 4 3 4 5 5 6 7 5 5 5 7 8 8 6 6 5 6 8 9 8 7 7 7 7 5
7 6 6 6 5 5 5 5 5 4 3 3 3 3 2 1 1 3 6 3 4 4 5 5 5 6 5 3 6 10 11 14 12 7 8 9 9 9 8 8 7 7 7
5 5 5 5 5 4 4 4 3 2 2 1 1 2 2 2 2 2 5 4 4 5 5 5 6 6 5 4 5 7 8 9 10 7 7 10 10 9 8 7 7 7 7
5 5 5 5 5 4 4 2 1 1 1 1 1 2 2 3 3 2 3 3 4 6 6 7 7 5 8 9 6 8 10 10 11 11 12 13 14 14 10 4 4 5 6
5 4 4 4 4 3 2 1 0 0 1 1 1 1 2 2 3 3 3 2 4 5 6 7 9 9 11 12 7 7 10 10 9 11 10 10 8 8 9 4 4 4 5
4 4 3 3 3 2 1 0 1 1 2 2 2 2 1 1 2 4 5 2 3 5 5 6 7 13 15 15 12 7 10 10 8 8 7 7 6 5 5 4 4 3 4
3 3 2 1 1 1 1 1 2 2 3 3 3 3 3 2 3 5 8 8 6 4 5 5 8 15 16 15 10 9 13 10 5 5 5 5 4 4 4 5 5 4 5
2 1 1 1 0 1 1 1 2 3 3 2 2 2 2 2 4 7 9 10 11 5 5 11 14 15 14 9 10 13 10 5 4 4 5 4 4 4 4 4 5 5 6
1 0 1 1 1 1 0 1 2 2 2 2 2 1 2 3 3 4 5 6 8 7 7 10 14 12 9 8 8 7 5 4 3 4 4 4 4 4 3 3 3 4 4
1 1 1 2 1 0 1 1 2 2 3 3 1 1 1 3 5 7 6 5 5 6 7 5 4 5 6 6 6 6 5 5 4 3 3 3 4 4 3 3 2 3 3
1 2 1 1 1 1 2 3 4 2 3 4 3 2 2 4 8 10 10 11 12 10 5 4 5 5 6 6 7 6 5 5 4 3 3 3 4 4 4 3 2 2 3
2 2 1 1 1 2 3 3 1 2 2 2 3 3 4 7 8 9 11 11 9 7 3 4 5 5 6 6 6 5 4 5 4 4 4 4 4 4 4 4 3 3 3
2 2 1 1 1 2 3 3 3 2 1 2 4 5 6 7 8 9 10 7 5 5 3 5 5 6 6 6 6 5 5 5 5 5 5 5 4 4 4 4 4 3 3
1 1 0 1 1 2 3 3 2 2 1 1 2 3 5 6 6 7 6 3 3 4 5 5 5 5 6 5 5 5 5 5 5 5 5 6 5 4 4 4 4 5 3
0 2 3 2 2 3 3 2 2 2 1 0 1 2 3 3 3 4 4 3 4 4 5 5 5 6 5 5 5 5 5 5 6 5 6 6 6 4 4 5 4 3 2
0 1 4 3 2 2 2 2 2 2 1 0 1 2 3 2 3 4 4 4 4 5 5 5 5 6 5 5 6 7 7 6 6 6 6 6 6 5 5 4 4 3 2
2 2 2 2 2 2 2 2 2 2 2 1 1 2 4 3 3 3 4 4 4 4 4 4 4 4 5 5 6 6 7 7 7 7 7 7 6 6 5 5 5 4 3
3 4 3 2 2 3 3 3 3 3 2 2 1 2 2 3 3 4 4 4 4 4 4 4 5 5 6 5 5 4 5 6 6 7 6 6 6 5 4 4 5 5 5
3 4 3 2 3 3 3 3 3 3 3 2 2 2 2 3 3 4 4 4 4 4 4 4 5 7 10 8 6 6 5 6 7 5 6 5 5 5 4 4 5 6 5
4 4 4 3 4 4 3 3 3 3 3 2 2 2 2 3 4 4 4 4 5 5 6 6 5 7 10 11 11 10 11 11 8 6 5 4 6 6 5 5 5 6 7
3 4 4 4 4 4 4 3 3 3 2 2 2 1 2 3 4 4 4 4 4 5 6 6 8 9 11 10 12 13 12 12 11 10 6 5 6 6 6 6 7 6 7
Wind_Direction
76 80 82 81 82 82 82 84 86 85 83 81 79 75 67 60 56 59 54 49 51 41 38 48 37 34 24 10 20 31 53 158 237 273 268 286 299 304 308 302 298 291 289
80 80 80 80 80 80 77 75 76 74 71 74 74 72 71 64 58 57 51 43 40 32 21 24 3 359 357 341 337 325 302 265 234 284 289 294 292 294 292 297 300 299 291
81 81 78 77 77 75 73 70 69 71 71 74 77 79 76 68 60 53 47 36 25 12 2 355 331 342 327 305 296 291 285 293 271 277 290 288 288 293 297 295 290 289 292
81 80 78 74 75 75 72 69 71 75 78 80 84 85 81 74 64 49 37 23 4 351 343 334 321 312 290 283 281 282 286 296 294 290 291 293 288 286 283 289 297 290 290
83 81 78 75 72 70 68 67 69 75 83 89 95 92 86 78 64 53 26 14 354 341 334 329 319 321 322 302 294 287 290 287 291 291 293 296 295 297 293 283 292 296 287
90 89 86 84 80 77 77 76 74 75 80 89 99 104 96 89 74 50 30 2 341 334 326 322 316 317 324 335 338 331 318 301 291 283 289 292 293 290 287 289 293 299 295
95 96 93 92 91 92 93 84 78 76 82 90 110 125 134 174 91 20 11 7 342 332 324 321 324 324 321 316 319 320 312 303 291 279 278 282 286 288 290 293 289 288 285
93 94 95 98 97 92 87 83 78 74 82 110 174 184 187 230 242 342 359 2 344 332 323 316 313 311 300 302 307 308 301 296 289 281 264 271 277 280 276 278 281 286 278
95 94 96 103 101 93 89 87 62 55 23 265 222 215 220 253 250 286 358 344 333 327 324 327 325 317 305 311 309 303 304 302 298 284 277 280 283 286 285 281 287 293 299
99 99 101 108 111 110 117 124 321 359 308 302 273 252 234 240 249 270 327 334 325 320 320 320 322 316 311 312 301 291 294 297 304 311 310 308 303 301 303 274 263 285 296
107 104 103 111 127 136 119 22 352 357 0 346 332 328 324 275 289 314 332 326 307 310 313 313 310 312 312 309 304 277 271 282 293 295 299 304 308 309 307 296 268 249 274
111 102 98 136 175 148 139 347 10 32 32 14 14 6 4 16 24 354 351 344 339 306 299 300 302 309 311 312 310 298 302 304 295 302 307 308 309 308 304 303 300 283 260
115 110 120 147 187 163 153 72 48 61 68 43 39 24 3 3 355 356 349 340 338 328 302 308 311 312 316 315 313 316 319 314 312 312 311 301 289 289 301 311 314 312 307
126 197 243 265 290 350 46 127 127 116 99 74 48 18 340 328 328 333 331 327 330 330 321 315 314 314 320 316 316 322 320 305 298 292 294 295 304 314 312 306 305 316 322
189 269 276 259 237 170 79 90 143 169 164 148 161 208 319 318 305 315 317 314 313 307 314 313 326 335 340 339 335 329 325 329 328 315 307 311 314 316 307 303 301 310 317
224 280 270 255 224 162 120 70 48 89 121 141 163 178 256 279 307 320 325 322 322 324 326 323 327 332 331 328 327 325 323 326 319 316 311 306 305 305 303 306 304 305 307
198 245 261 241 180 163 151 146 147 343 330 293 274 285 301 313 323 328 331 329 334 347 350 329 327 328 327 325 324 319 311 312 313 318 315 308 304 301 300 303 308 309 308
223 240 217 202 160 154 159 166 169 179 267 308 303 295 311 321 328 334 339 347 351 352 338 329 327 327 326 326 326 324 321 325 331 330 323 316 309 302 303 304 301 292 296
220 204 132 110 115 128 139 146 159 175 187 266 319 330 334 334 338 346 354 2 337 330 330 329 327 327 326 327 326 327 328 329 332 331 330 327 321 313 306 305 307 310 304
16 141 124 110 101 111 123 130 140 148 158 196 328 326 338 357 358 347 346 337 334 329 330 332 333 334 335 336 338 340 341 341 341 337 332 331 328 324 317 317 321 322 318
114 109 110 104 110 122 129 138 145 143 145 139 318 343 5 4 347 338 335 334 334 333 334 335 337 342 346 347 347 346 345 341 338 334 331 331 331 331 329 333 338 344 340
140 142 136 132 126 116 119 123 127 129 124 106 21 5 19 18 351 338 334 332 331 331 334 339 343 345 346 347 346 344 342 339 336 333 329 328 330 336 343 351 355 360 2
128 136 133 132 118 108 101 104 106 103 97 87 66 29 14 1 348 342 338 336 342 349 354 1 1 355 348 341 338 336 330 320 310 305 311 320 333 343 351 358 3 10 17
115 127 128 122 111 110 110 108 106 105 103 89 60 40 19 356 347 346 345 348 358 3 4 7 7 359 353 350 342 337 326 311 302 295 306 326 345 354 4 12 12 18 24
118 120 120 119 120 120 115 110 106 103 95 85 70 41 9 356 353 353 354 2 13 16 14 10 6 2 354 350 350 343 333 333 339 337 336 357 10 15 21 22 25 30 34
118 121 118 119 122 124 123 120 118 113 102 91 74 42 12 2 358 360 2 14 25 21 16 9 5 6 1 355 348 344 344 349 353 357 1 15 26 27 27 30 34 37 40